Flag for Canada Weather past 2 weeks in Thompson, Manitoba, Canada

Now
64 °F

Sprinkles. Overcast.


Feels Like: 64 °F
Forecast: 53 / 66 °F
Wind: 3 mph from Northwest

Location: Thompson

Current Time: Aug 21, 2014 at 5:49:58 AM

Latest Report: Aug 21, 2014 at 5:00 AM


Visibility: 15 mi

Pressure: 29.74 "Hg

Humidity: 100%

Dew point: 64 °F

Location of ThompsonLocation

Historic Weather in Thompson — Graph

°F

Thompson temperature yesterday

Maximum temperature yesterday: 82 °F (at 4:00 PM)
Minimum temperature yesterday: 63 °F (at 5:00 AM)
Average temperature yesterday: 72 °F

Past Weeks' High & Low Weather Summary

 TemperatureHumidityPressure
High86 °F (Aug 6, 4:00 PM)100% (Aug 6, 5:00 AM)30.20 "Hg (Aug 6, 5:00 AM)
Low34 °F (Aug 11, 6:00 AM)34% (Aug 8, 3:00 PM)29.60 "Hg (Aug 19, 5:00 PM)
Average63 °F79%29.90 "Hg
* Reported Aug 6 4:04 AM — Aug 21 4:00 AM, Thompson, Weather by CustomWeather, © 2014

Note: Actual official high and low records may vary slightly from our data, if they occured in-between our weather recording intervals... More about our weather records

Advertising

Thompson weather history for previous 24 hours

 ConditionsComfort  
Time TempWeatherWind HumidityBarometerVisibility
4:00 AM
Aug 21
64 °FSprinkles. Mostly cloudy.3 mph100%29.72 "Hg15 mi
3:00 AM64 °FSprinkles. Overcast.2 mph100%29.72 "Hg15 mi
2:00 AM64 °FSprinkles. Mostly cloudy.5 mph100%29.72 "Hg15 mi
1:00 AM63 °FThunderstorms. Mostly cloudy.5 mph100%29.72 "Hg15 mi
12:00 AM63 °FThunderstorms. Overcast.7 mph100%29.72 "Hg15 mi
10:54 PM
Aug 20
N/AThunderstorms.9 mphN/AN/A5 mi
10:00 PM73 °FThunderstorms. Mostly cloudy.No wind69%29.69 "Hg10 mi
9:00 PM73 °FMostly cloudy.3 mph69%29.69 "Hg15 mi
8:00 PM77 °FPartly sunny.5 mph61%29.68 "Hg15 mi
7:00 PM79 °FPartly sunny.7 mph58%29.67 "Hg15 mi
6:00 PM79 °FPartly sunny.9 mph54%29.70 "Hg15 mi
5:00 PM81 °FBroken clouds.15 mph51%29.70 "Hg15 mi
4:00 PM82 °FPartly sunny.15 mph51%29.69 "Hg15 mi
3:00 PM81 °FScattered clouds.14 mph58%29.70 "Hg15 mi
2:00 PM81 °FBroken clouds.13 mph58%29.71 "Hg10 mi
1:00 PM79 °FScattered clouds.12 mph58%29.71 "Hg10 mi
12:00 PM77 °FBroken clouds.7 mph61%29.72 "Hg10 mi
11:00 AM73 °FBroken clouds.6 mph74%29.73 "Hg10 mi
10:00 AM70 °FScattered clouds.3 mph88%29.74 "Hg10 mi
9:00 AM66 °FMore clouds than sun.2 mph100%29.74 "Hg10 mi
8:00 AM64 °FCloudy.No wind100%29.73 "Hg10 mi
7:00 AM64 °FMostly cloudy.3 mph100%29.72 "Hg10 mi
6:00 AM63 °FMostly cloudy.2 mph100%29.70 "Hg10 mi
5:00 AM63 °FPartly cloudy.3 mph100%29.69 "Hg15 mi
Weather by CustomWeather, © 2014

See weather overviewHow to use our weather pages